カタログに戻る

SHIYAN 9

SY-9

運用中科学GEO
NORAD 47851·PAYLOAD·🇨🇳 China

打ち上げ Mar 11, 2021 から Wenchang Space Launch Site

Loading…

TLE

最新Source: Space-Track

元期: Sep 14, 2026, 11:11 UTC

1 47851U 21019A   26257.46618280 -.00000239  00000-0  00000-0 0  9990
2 47851  16.3339 301.2796 0014906  22.3509 344.3967  1.00269311 25030

AllMySatでSHIYAN 9をリアルタイム追跡

Download on the App Store